Regional Weather Roundup
Issued by NWS

Home | Current Version | Previous Version | Text Only | Print | Product List | Glossary On
Versions: 1 2 3 4 5 6 7 8 9 10 11 12 13 14 15 16 17 18 19 20 21 22 23 24 25 26 27 28 29 30 31 32 33 34 35 36 37 38 39 40 41 42 43 44 45 46 47 48 49 50
000
ASUS46 KSEW 191010
RWRWA

WASHINGTON REGIONAL WEATHER ROUNDUP
NATIONAL WEATHER SERVICE SEATTLE WA
300 AM PDT FRI SEP 19 2014

NOTE:"FAIR" INDICATES FEW OR NO CLOUDS BELOW 12,000 FEET WITH NO
SIGNIFICANT WEATHER AND/OR OBSTRUCTIONS TO VISIBILITY.

WAZ505-507>509-191100-
SEATTLE, TACOMA, EVERETT, AND VICINITY

CITY           SKY/WX    TMP DP  RH WIND       PRES   REMARKS
EVERETT        LGT RAIN  60  58  92 SW8       30.00R FOG
BOEING FIELD   CLOUDY    66  57  72 S7        30.00R
RENTON         CLOUDY    65  60  84 SE6       29.99R
SEATAC AIRPORT CLOUDY    63  57  81 S7        30.01S
JBLM-MCCHORD   CLOUDY    62  59  90 S7        30.01S
PUYALLUP       NOT AVBL
JBLM-FT LEWIS  CLOUDY    59  57  94 SE6       30.00F
TACOMA NARROWS CLOUDY    62  57  83 S9        30.01S
$$

WAZ001-503-506-510-514-515-191100-
NORTH INTERIOR

CITY           SKY/WX    TMP DP  RH WIND       PRES   REMARKS
BELLINGHAM     CLOUDY    62  58  86 S7        29.97R
FRIDAY HARBOR  CLOUDY    56  54  93 CALM      29.99R
EASTSOUND      CLOUDY    59  57  94 S8        29.95S
PORT ANGELES     N/A     61  56  83 CALM      29.98S
NAS WHIDBEY    CLOUDY    62  59  90 CALM      29.99R
BURLINGTON     CLOUDY    63  61  94 CALM      30.00R
$$

WAZ020-022-039-040-504-511-512-191100-
SOUTHWEST INTERIOR

CITY           SKY/WX    TMP DP  RH WIND       PRES   REMARKS
SHELTON        MOCLDY    60  57  89 SW8       29.99R
OLYMPIA        MOCLDY    60  57  89 S7        30.01R
CHEHALIS       PTSUNNY   57  57 100 CALM      30.02R
KELSO          CLOUDY    59  54  82 CALM      30.05F
VANCOUVER      CLOUDY    61  57  87 CALM      30.02R
SCAPPOOSE, OR  CLOUDY    58  56  93 CALM      30.02R
PORTLAND, OR   CLOUDY    62  59  90 W7        30.03R
$$

WAZ021-516-517-191100-
WASHINGTON COAST

CITY           SKY/WX    TMP DP  RH WIND       PRES   REMARKS
FORKS          CLOUDY    59  59 100 SE3       29.99R
HOQUIAM        CLOUDY    62  61  96 CALM      30.01R
ASTORIA, OR    MOCLDY    61  59  93 SW6       30.01S
$$

WAZ019-023-024-040-518-519-191100-
CASCADE MOUNTAINS AND COLUMBIA GORGE

CITY           SKY/WX    TMP DP  RH WIND       PRES   REMARKS
STAMPEDE PASS  NOT AVBL
TROUTDALE, OR  CLOUDY    64  58  80 W3        30.01R
THE DALLES, OR PTCLDY    67  54  63 W6        29.97R
$$

WAZ026-027-041>044-520-521-191100-
EAST SLOPES

CITY           SKY/WX    TMP DP  RH WIND       PRES   REMARKS
OMAK           CLOUDY    60  50  69 CALM      29.86R
WENATCHEE      CLOUDY    69  48  47 NW16      29.90R
ELLENSBURG     MOCLDY    64  51  62 W18       29.96R
YAKIMA         PTCLDY    55  48  77 W7        29.95R
$$

WAZ028-034-035-191100-
COLUMBIA BASIN

CITY           SKY/WX    TMP DP  RH WIND       PRES   REMARKS
EPHRATA        CLOUDY    66  48  52 SW12      29.88R
MOSES LAKE     CLOUDY    62  50  64 SW7       29.90R
PASCO          PTCLDY    63  54  72 SW6       29.94R
HERMISTON, OR  PTCLDY    62  51  67 SW7       29.95R
$$

WAZ036>038-191100-
NORTHEAST WASHINGTON

CITY           SKY/WX    TMP DP  RH WIND       PRES   REMARKS
SPOKANE GEIGER CLOUDY    57  48  72 SW17      29.91R
SPOKANE FELTS  CLOUDY    61  48  62 SW3       29.92R
FAIRCHILD AFB  CLOUDY    55  48  76 SW16      29.93R
COEURDALENE,ID CLOUDY    59  48  67 S9        29.93R
DEER PARK      PTCLDY    57  47  69 S8        29.91R
$$

WAZ029>033-191100-
SOUTHEAST WASHINGTON

CITY           SKY/WX    TMP DP  RH WIND       PRES   REMARKS
PULLMAN        PTCLDY    57  48  72 SW8       29.99R
LEWISTON, ID   CLOUDY    67  49  52 W5        29.94R
WALLA WALLA    PTCLDY    62  49  62 S8        29.98S
PENDLETON, OR  MOCLDY    60  48  64 SW8       29.98S
$$


USA.gov is the U.S. government's official web portal to all federal, state and local government web resources and services.